Home > Weather > Chico > Past weeks

Flag for USA Past Weather in Chico, California, USA — Yesterday and Last 2 Weeks

Now
88 °F

Overcast.


Feels Like: 85 °F
Forecast: 73 / 109 °F
Wind: No wind

Location: Chico Municipal

Current Time: Jul 27, 2016 at 11:51:33 PM

Latest Report: Jul 27, 2016 at 11:35 PM


Visibility: 10 mi

Pressure: 29.84 "Hg

Humidity: 24%

Dew Point: 46 °F

Location of ChicoLocation

Past Weather in Chico — Graph

°F

Chico Temperature Yesterday

Maximum temperature yesterday: 104 °F (at 3:47 PM)
Minimum temperature yesterday: 68 °F (at 5:15 AM)
Average temperature yesterday: 85 °F

High & Low Weather Summary for the Past Weeks

 TemperatureHumidityPressure
High104 °F (Jul 26, 3:47 PM)68% (Jul 19, 3:15 AM)30.11 "Hg (Jul 19, 3:15 AM)
Low63 °F (Jul 13, 5:15 AM)10% (Jul 13, 6:15 PM)29.75 "Hg (Jul 16, 6:35 PM)
Average81 °F32%29.90 "Hg
* Reported Jul 12 10:15 PM — Jul 27 10:35 PM, Chico, Weather by CustomWeather, © 2016

Note: Actual official high and low records may vary slightly from our data, if they occured in-between our weather recording intervals... More about our weather records

Advertising

Chico Weather History for the Previous 24 Hours

Scroll right to see more
 ConditionsComfort  
Time TempWeatherWind HumidityBarometerVisibility
10:35 PM
Wed, Jul 27
90 °FOvercast.No wind22%29.83 "Hg10 mi
10:15 PM91 °FOvercast.No wind23%29.83 "Hg10 mi
9:55 PM91 °FOvercast.No wind23%29.83 "Hg10 mi
9:35 PM93 °FPassing clouds.No wind21%29.82 "Hg10 mi
9:15 PM95 °FPassing clouds.No wind22%29.81 "Hg10 mi
8:55 PM95 °FSunny.No wind22%29.80 "Hg10 mi
8:35 PM97 °FSunny.No wind22%29.80 "Hg10 mi
8:15 PM99 °FSunny.No wind21%29.79 "Hg10 mi
7:55 PM99 °FSunny.No wind24%29.79 "Hg10 mi
7:35 PM100 °FSunny.No wind22%29.79 "Hg10 mi
7:15 PM100 °FSunny.3 mph21%29.79 "Hg10 mi
6:55 PM102 °FSunny.3 mph17%29.78 "Hg10 mi
6:35 PM102 °FSunny.7 mph21%29.79 "Hg10 mi
6:15 PM102 °FSunny.7 mph21%29.79 "Hg10 mi
5:55 PM102 °FSunny.9 mph23%29.79 "Hg10 mi
4:50 PM104 °FScattered clouds.12 mph12%29.80 "Hg15 mi
3:47 PM104 °FScattered clouds.9 mph15%29.82 "Hg10 mi
2:45 PM84 °FScattered clouds.9 mph27%29.84 "Hg10 mi
1:47 PM82 °FSunny.8 mph32%29.86 "Hg10 mi
12:52 PM99 °FSunny.8 mph18%29.87 "Hg10 mi
11:47 AM93 °FSunny.9 mph24%29.88 "Hg10 mi
10:52 AM90 °FSunny.7 mph29%29.89 "Hg10 mi
9:47 AM86 °FSunny.8 mph35%29.89 "Hg10 mi
8:48 AM82 °FSunny.7 mph40%29.88 "Hg10 mi
7:50 AM75 °FSunny.7 mph47%29.88 "Hg10 mi
6:50 AM70 °FClear.6 mph46%29.88 "Hg10 mi
5:35 AM72 °FPassing clouds.No wind50%29.86 "Hg10 mi
4:55 AM73 °FPassing clouds.No wind44%29.86 "Hg10 mi
4:35 AM73 °FClear.No wind47%29.85 "Hg10 mi
4:15 AM73 °FPassing clouds.No wind47%29.85 "Hg10 mi
3:55 AM73 °FPassing clouds.No wind50%29.85 "Hg10 mi
3:35 AM73 °FPassing clouds.No wind53%29.84 "Hg10 mi
3:15 AM73 °FPassing clouds.No wind50%29.84 "Hg10 mi
2:55 AM73 °FPassing clouds.No wind44%29.83 "Hg10 mi
2:35 AM73 °FPassing clouds.No wind44%29.83 "Hg10 mi
2:15 AM81 °FClear.No wind32%29.82 "Hg10 mi
1:55 AM84 °FPassing clouds.No wind27%29.81 "Hg10 mi
1:35 AM82 °FPassing clouds.No wind30%29.81 "Hg10 mi
1:15 AM86 °FPassing clouds.No wind25%29.81 "Hg10 mi
12:55 AM86 °FPassing clouds.No wind25%29.81 "Hg10 mi
12:35 AM86 °FPassing clouds.No wind25%29.81 "Hg10 mi
12:15 AM86 °FPassing clouds.No wind25%29.82 "Hg10 mi
11:55 PM
Tue, Jul 26
86 °FPassing clouds.5 mph25%29.82 "Hg10 mi
11:35 PM86 °FPassing clouds.6 mph25%29.81 "Hg10 mi
11:15 PM86 °FPassing clouds.5 mph25%29.82 "Hg10 mi
Weather by CustomWeather, © 2016

See weather overviewHow to use our weather pages